Location: Horizons Observatory
(43.6555°N, 72.5295°W)
Time: 17:59:39
(UTC-04:00)

X-37B - Visible Passes

Search period start: 24 June 2021 00:00
Search period end: 04 July 2021 00:00
Orbit: 386 x 389 km, 45.0° (Epoch: 23 June)

Date Brightness Start Highest point End Pass type
(mag) Time Alt. Az. Time Alt. Az. Time Alt. Az.
24 Jun 3.4 00:19:11 10° W 00:19:31 12° W 00:19:31 12° W visible
24 Jun 0.8 21:44:14 10° SW 21:47:19 48° SSE 21:50:24 10° E visible
24 Jun 0.8 23:20:46 10° W 23:23:56 69° N 23:24:20 59° NE visible
25 Jun 0.6 22:22:21 10° W 22:25:32 82° NNW 22:28:40 10° ENE visible
25 Jun 2.1 23:59:07 10° WNW 00:00:56 31° WNW 00:00:56 31° WNW visible
26 Jun 0.5 21:23:59 10° WSW 21:27:09 75° SSE 21:30:20 10° ENE visible
26 Jun 0.9 23:00:42 10° W 23:03:52 65° N 23:05:02 34° ENE visible
27 Jun 0.9 22:02:17 10° W 22:05:27 68° N 22:08:38 10° E visible
27 Jun 1.5 23:39:01 10° WNW 23:41:16 42° WNW 23:41:16 42° WNW visible
28 Jun 0.7 22:40:38 10° WNW 22:43:49 71° N 22:45:12 30° E visible
29 Jun 3.5 00:17:21 10° W 00:17:27 11° W 00:17:27 11° W visible
29 Jun 0.9 21:42:13 10° W 21:45:23 65° N 21:48:34 10° E visible
29 Jun 1.2 23:18:55 10° WNW 23:21:21 46° W 23:21:21 46° W visible
30 Jun 0.5 22:20:32 10° WNW 22:23:43 88° NNE 22:25:15 28° ESE visible
30 Jun 3.5 23:57:26 10° W 23:57:30 10° W 23:57:30 10° W visible
01 Jul 0.8 21:22:09 10° WNW 21:25:20 71° N 21:28:31 10° E visible
01 Jul 1.4 22:58:52 10° W 23:01:24 38° SW 23:01:24 38° SW visible
02 Jul 0.6 22:00:26 10° WNW 22:03:36 66° SSW 22:05:19 24° ESE visible
03 Jul 2.0 22:38:57 10° W 22:41:31 25° SW 22:41:31 25° SW visible
